User: anonymous   Login
Location: ČR
(50.0000°N, 15.0000°E)
Time: 00:22:00
(UTC+00:00)
Language:

PicSat - Orbit

View from above orbital plane
View from above orbital plane
View from above satellite
View from above satellite

Ground track
Ground track

The orbit data is extracted from the following two-line orbital elements,

1 43131U 18004W   21340.20760681  .00005841  00000-0  20906-3 0  9993
2 43131  97.3976  55.0748 0006868 323.5638  36.5134 15.29146929216999
Epoch (UTC): 06 December 2021 04:58:57
Eccentricity: 0.0006868
inclination: 97.3976°
perigee height: 473 km
apogee height: 483 km
right ascension of ascending node: 55.0748°
argument of perigee: 323.5638°
revolutions per day: 15.29146929
mean anomaly at epoch: 36.5134°
orbit number at epoch: 21699

The dashed part of the orbit path shows where the satellite is in the earth's shadow,  

DLR